Location: Hawks Ness
(60.2333°N, 1.1667°W)
Time: 10:10:42
(UTC+00:00)

Cosmos 1726 - Pass Details

Date: 28 January 2020
Orbit: 483 x 500 km, 82.5° (Epoch: 22 February)

Event Time Altitude Azimuth Distance (km) Brightness Sun altitude
Exits shadow 05:17:22 39° 17° (NNE) 742 3.1 -23.3°
Drops below altitude 10° 05:19:48 10° 15° (NNE) 1,682 5.0 -23.0°
Sets 05:21:54 0° 15° (NNE) 2,567 6.0 -22.7°
